RH
18 18 19 19 20 21 20 19 19 17 17 18 20 21 21 21 20 19 18 18 17 17 16 15 16 17 19 19 18 19 21 22 24 22 21 21 19 18 17 15 15 16 15 15 15 15 14 14 14 15 15 15 16 17 18 18 19 21 24 28 29 31 29 28 28 28 26 24 23 22 22 21 19 19 18 20 23 24 26 25 25 29 33 36 39 43 44 47
18 18 19 19 19 20 20 19 19 18 17 18 20 21 22 21 20 19 18 16 15 15 15 14 15 16 17 19 20 20 23 25 24 23 21 20 19 18 17 14 14 15 15 15 15 14 14 13 14 14 14 13 14 14 16 18 18 21 25 27 27 29 27 26 27 26 24 22 22 23 23 22 20 21 19 20 25 27 27 26 25 25 29 36 41 42 46 52
18 17 18 19 19 19 19 18 18 18 18 19 20 22 23 21 20 19 18 16 14 14 14 14 15 15 17 19 23 25 26 27 26 24 22 21 21 19 17 14 14 14 15 16 15 15 14 14 14 14 14 13 13 13 15 16 17 19 21 24 25 26 25 24 25 25 24 22 21 23 22 22 21 22 21 21 25 30 29 26 26 26 27 37 45 45 48 56
17 16 17 17 18 19 19 17 17 17 18 18 20 22 23 21 19 19 18 16 15 15 15 16 16 17 18 20 24 28 29 28 26 24 23 22 21 19 17 14 14 15 16 16 16 15 15 15 15 15 15 15 14 14 15 15 17 18 19 22 23 22 22 22 23 24 24 24 23 23 23 22 22 21 22 22 25 30 29 26 28 30 31 39 48 51 53 62
18 17 16 16 17 18 19 17 16 16 16 17 20 22 23 21 19 18 18 16 15 16 17 18 18 19 19 20 24 28 30 29 28 26 23 22 20 18 16 15 16 17 16 16 15 15 15 15 16 16 16 16 16 15 16 16 15 17 18 19 19 20 21 20 20 22 23 24 23 23 24 22 21 20 21 22 24 28 29 27 29 34 39 43 50 54 57 66
23 21 19 16 16 17 19 17 15 15 15 17 19 21 22 21 18 18 17 16 16 17 19 19 20 20 19 22 25 28 31 30 28 26 22 19 18 16 17 18 18 17 16 15 15 15 15 14 15 15 16 16 16 16 15 15 14 14 15 15 15 16 17 17 17 19 20 22 23 23 24 22 21 19 20 22 23 26 28 27 26 31 41 47 51 55 58 67
27 26 25 22 18 18 19 18 16 14 14 16 18 20 21 20 18 18 17 16 17 18 20 20 20 21 22 25 29 30 31 29 27 26 22 18 18 18 19 19 17 16 15 15 14 14 14 14 13 14 15 16 15 15 14 14 13 13 13 13 13 13 14 14 13 15 17 19 20 23 24 23 22 19 19 20 22 26 27 26 24 26 37 46 52 54 58 67
28 29 29 28 24 21 20 20 18 15 14 15 18 20 21 20 18 18 18 17 18 20 21 21 20 22 25 27 29 31 31 29 26 25 22 19 19 19 18 17 16 16 16 16 15 14 14 14 14 13 13 14 13 13 13 12 12 13 12 12 12 12 12 12 12 13 15 15 16 19 21 22 22 19 18 19 21 25 27 26 25 26 32 41 49 52 57 68
29 30 31 31 30 26 23 23 21 17 15 16 19 21 21 20 18 19 19 19 20 21 21 21 21 23 25 26 28 30 30 28 27 26 24 21 20 19 18 17 17 17 16 16 15 14 14 13 12 12 12 12 12 12 12 12 12 12 12 12 12 11 11 11 12 12 12 13 13 14 17 19 20 20 19 19 20 23 25 26 26 26 28 35 44 49 55 66
29 31 32 33 33 30 27 28 26 20 17 19 21 22 21 20 19 21 22 21 21 22 23 22 22 24 25 27 29 31 30 29 28 27 26 24 22 21 20 20 18 17 15 15 14 13 13 13 12 11 11 12 12 12 12 12 13 12 12 12 12 12 12 12 12 12 12 13 13 13 14 14 16 19 20 20 20 22 24 26 26 27 27 30 38 46 52 63
29 30 32 33 34 31 29 31 31 24 22 23 24 22 22 22 22 23 24 23 22 23 23 23 23 26 28 30 31 32 31 29 27 26 26 25 25 24 23 21 19 17 15 14 13 13 13 13 13 12 13 13 13 13 13 13 13 13 13 13 13 13 14 14 14 13 13 14 14 13 13 12 13 16 19 21 21 22 23 24 24 26 27 28 34 42 52 61
29 29 31 32 34 32 29 31 35 31 27 27 25 24 25 27 25 25 25 24 23 25 25 24 26 29 32 32 33 33 33 31 29 28 27 26 25 24 23 22 20 18 16 14 13 14 14 15 15 15 15 14 14 13 13 13 13 13 13 13 15 16 16 16 16 15 15 15 15 14 13 13 13 13 17 20 22 22 22 21 21 24 27 29 35 40 47 57
33 32 31 32 34 33 29 31 35 34 32 29 25 25 29 32 29 26 26 25 25 27 27 27 28 32 35 35 34 35 36 35 32 31 28 27 25 24 23 22 21 20 18 17 16 17 17 17 17 17 16 16 15 14 14 14 13 14 14 15 16 18 18 17 17 16 16 16 15 14 15 16 15 14 15 17 20 21 21 20 19 23 27 29 36 41 42 47
37 37 35 35 36 35 31 32 36 36 35 32 27 27 33 35 33 29 27 27 27 29 30 30 31 35 39 38 37 38 38 36 34 33 30 27 25 24 24 23 22 21 19 19 19 19 19 19 19 19 18 18 18 16 16 16 15 15 15 17 19 20 22 20 19 17 16 17 16 15 17 17 15 15 14 13 15 17 19 20 18 22 27 27 34 42 42 42
37 39 39 39 40 38 33 31 35 37 37 37 33 31 34 35 35 33 30 29 29 31 31 31 33 37 42 42 40 39 39 38 36 33 30 29 26 24 23 23 23 21 20 21 21 21 21 20 20 21 21 20 20 20 20 19 19 19 16 20 23 22 23 23 20 18 18 19 18 17 19 17 16 16 14 11 12 14 17 19 19 20 25 27 30 38 42 42
34 38 40 40 39 38 36 31 33 38 39 40 39 36 36 35 34 35 35 33 32 32 32 34 35 39 44 44 42 40 39 38 37 34 31 30 28 25 24 25 25 23 22 22 22 22 22 22 22 22 22 22 23 26 26 24 25 26 21 22 25 23 25 24 21 19 19 19 19 18 18 17 17 17 16 14 13 13 15 18 19 19 23 28 30 32 39 42
32 34 36 37 36 37 39 34 31 36 41 43 43 40 38 36 35 36 37 37 35 32 32 36 39 41 44 43 43 42 40 37 35 34 33 30 29 27 25 26 26 25 24 24 23 23 24 23 23 23 26 27 28 31 31 29 30 31 29 27 26 26 26 26 23 21 20 20 19 19 17 18 19 17 18 21 19 18 18 19 19 19 20 26 30 29 33 38
30 32 33 34 35 34 36 33 27 31 41 46 47 43 38 36 36 37 38 40 37 32 35 40 42 45 46 44 44 43 40 35 33 33 33 32 30 27 26 26 26 25 26 26 25 26 26 26 26 29 33 33 33 35 34 32 31 31 31 30 29 29 28 28 26 23 22 21 20 20 19 20 20 19 22 25 27 28 28 28 29 27 23 23 28 30 29 31
29 30 31 32 31 29 30 29 25 27 37 45 49 47 41 36 36 38 39 41 39 34 37 41 43 48 49 46 45 43 39 34 32 32 32 31 29 29 28 26 26 27 27 29 30 29 30 30 32 34 36 36 36 37 36 33 32 31 31 31 31 31 31 30 29 26 23 22 22 21 21 22 23 23 26 27 29 32 32 33 35 35 31 26 26 30 31 31
29 29 30 31 29 26 28 29 27 28 33 44 51 50 44 40 40 41 40 40 39 35 36 41 44 47 48 45 43 43 39 35 34 32 29 28 29 30 30 28 28 29 30 32 32 31 33 37 39 38 39 39 38 38 36 33 33 33 33 33 33 33 34 32 31 28 24 24 25 24 25 27 27 27 30 29 30 33 33 33 35 37 38 35 32 32 33 35
28 29 30 31 28 25 28 31 31 29 32 44 52 51 49 47 47 47 42 38 35 34 37 42 44 45 45 43 41 40 39 37 35 33 29 28 31 32 32 32 31 31 33 34 33 33 36 41 42 41 42 41 41 40 38 35 34 34 35 36 36 37 37 35 33 30 27 26 28 29 32 33 30 30 32 32 32 33 34 33 34 36 39 41 40 37 36 38
26 29 30 31 27 25 28 31 30 28 32 44 50 52 52 50 49 47 43 39 34 35 40 43 45 45 44 43 41 38 40 40 36 34 33 32 33 34 34 36 34 34 35 34 34 38 42 43 42 42 43 44 45 45 41 38 37 38 39 39 39 40 40 38 35 33 31 30 30 31 35 34 32 33 35 34 33 33 34 33 33 34 36 39 42 42 42 43
24 27 31 31 26 26 30 30 28 29 35 46 51 53 52 48 47 46 44 42 40 41 46 48 49 48 47 46 44 42 43 42 38 37 37 36 36 35 35 36 37 35 34 35 37 39 43 46 45 44 43 43 46 47 45 43 42 44 43 41 42 42 42 42 39 36 34 33 32 33 34 34 33 35 36 34 33 33 33 33 32 31 33 36 39 42 44 47
22 25 31 31 26 28 32 29 30 34 39 47 52 54 51 46 45 46 46 47 49 50 53 54 54 53 52 50 47 46 45 42 40 39 38 37 37 37 36 37 37 34 33 39 42 41 44 45 43 44 45 43 45 49 48 45 47 49 46 42 43 43 43 44 44 42 39 37 35 35 36 36 36 37 39 38 35 33 34 34 32 31 31 33 35 38 41 44
20 25 32 29 26 30 32 32 35 39 43 51 54 53 50 45 46 49 50 53 57 58 57 57 56 55 54 52 49 46 43 41 40 38 38 38 37 38 37 37 37 36 38 42 43 43 46 46 43 45 48 47 47 51 50 46 47 50 47 42 40 42 44 46 49 50 48 43 38 36 38 40 40 39 41 43 41 37 36 36 34 32 32 33 34 36 38 39
20 28 32 28 27 32 33 35 39 42 49 56 56 53 50 46 49 53 57 63 63 61 60 59 58 57 55 53 49 42 40 43 40 37 38 39 39 38 39 41 39 39 44 45 43 45 49 48 48 48 51 53 53 53 52 48 46 46 46 43 41 43 47 50 51 52 51 48 44 41 42 42 40 41 42 44 46 44 41 40 37 34 34 35 35 36 37 37
21 30 32 27 29 34 35 38 43 47 55 59 57 54 49 47 53 57 63 72 70 63 61 60 58 57 56 52 47 41 41 42 38 38 40 40 41 39 41 46 44 43 46 47 49 54 53 51 51 51 52 54 54 53 53 50 47 46 45 43 43 44 47 51 52 52 52 51 49 49 46 42 40 44 48 47 49 51 48 44 39 37 37 38 38 37 36 36
24 31 31 27 30 35 37 41 47 53 59 60 56 51 47 48 56 62 68 73 69 62 60 58 56 55 54 51 46 41 37 35 38 43 42 40 41 40 42 47 47 49 50 50 56 60 55 53 53 53 53 55 56 55 54 51 49 50 47 43 43 43 45 48 50 53 54 49 49 50 45 40 43 51 54 52 52 53 53 48 42 41 41 41 41 39 37 35
25 31 30 28 31 35 39 44 51 57 60 58 51 48 49 52 58 62 69 69 63 62 60 57 56 54 52 50 47 40 33 32 38 42 40 40 41 41 45 48 50 54 54 53 59 60 55 54 55 55 56 60 63 62 58 52 50 52 51 47 45 45 46 47 48 52 53 49 49 48 43 39 45 55 57 53 53 54 55 54 50 49 47 44 46 45 42 39
25 31 30 29 31 34 42 50 55 57 60 55 48 49 55 61 65 68 72 69 63 62 59 55 55 54 53 51 47 42 35 34 38 39 40 43 44 46 49 50 51 57 59 56 58 58 54 53 55 55 58 61 63 62 58 54 53 53 53 51 47 48 53 56 54 51 51 53 51 49 47 41 43 56 62 58 58 57 56 56 56 58 56 53 53 51 47 45
25 30 30 30 31 34 46 55 55 56 58 52 50 55 60 65 73 77 74 66 62 62 59 57 58 58 56 52 45 41 39 39 40 42 47 49 50 52 54 54 57 62 65 62 61 59 56 55 57 57 59 61 61 60 59 58 57 56 58 55 48 48 53 56 56 52 52 56 52 51 52 46 47 62 67 64 64 62 58 59 62 64 62 59 56 52 48 48
26 29 30 30 32 36 49 56 54 55 55 51 53 60 64 67 72 75 70 61 60 63 59 58 60 60 56 49 43 42 43 45 45 47 53 56 57 58 58 59 63 66 69 68 65 61 57 58 61 62 62 62 62 63 64 64 61 59 61 58 53 56 59 59 62 59 57 55 51 52 55 54 61 70 68 65 64 63 61 62 65 65 64 61 57 54 51 51
26 28 29 31 33 40 51 55 53 54 54 52 56 62 68 72 69 67 66 60 58 60 59 60 62 57 48 43 44 44 45 48 51 53 56 60 63 64 64 65 66 68 72 72 69 67 65 63 65 66 66 65 66 68 68 67 65 62 60 57 58 66 67 67 71 66 61 58 54 55 56 61 70 70 66 64 63 64 65 64 63 65 71 69 59 54 52 50
26 28 29 32 37 43 52 55 53 53 52 52 57 63 69 72 67 63 63 61 60 60 60 63 62 52 42 41 45 45 47 52 55 58 61 65 69 70 69 68 69 73 76 75 72 72 72 68 68 70 71 70 71 72 71 68 64 63 60 56 58 63 61 59 65 66 63 64 64 62 63 69 74 70 67 66 66 66 67 68 66 68 81 84 69 59 53 47
26 28 29 34 41 46 53 54 53 54 52 53 62 68 70 69 65 62 62 62 61 61 61 62 61 53 46 46 49 48 49 52 57 63 65 67 70 72 72 71 72 75 78 77 74 70 71 71 71 73 74 75 75 76 73 68 64 63 61 58 57 59 58 56 61 67 67 73 80 79 75 75 75 72 70 71 72 71 71 74 72 72 86 94 83 70 62 53
27 28 30 37 44 49 54 54 53 54 54 57 67 71 71 68 63 61 62 59 59 62 62 58 55 53 49 50 53 53 51 52 59 63 65 67 70 72 75 76 75 74 74 74 71 69 72 75 76 78 78 78 78 78 75 69 67 65 60 59 58 55 57 59 64 70 72 79 87 88 84 80 78 77 78 83 87 84 82 83 81 82 89 95 90 80 73 67
27 29 32 38 44 50 55 53 53 54 55 62 70 71 70 65 59 60 62 58 58 62 58 50 46 47 49 50 52 55 54 54 58 61 63 67 68 69 76 79 75 71 69 67 66 70 76 79 81 82 82 82 78 77 77 72 69 68 64 64 61 54 55 59 64 72 79 86 91 90 89 86 82 83 86 93 97 93 90 90 89 91 93 94 93 86 81 79
26 30 33 39 44 51 56 55 53 53 57 67 74 72 67 60 55 58 60 56 57 57 50 45 44 45 48 50 51 53 53 54 58 62 64 66 68 70 76 80 75 70 67 62 64 72 78 82 85 84 86 87 82 77 79 77 71 67 65 63 61 59 61 60 61 69 79 88 94 92 92 89 85 88 92 95 97 93 92 92 90 93 93 92 92 87 85 85
27 31 35 40 44 52 57 56 53 54 60 69 75 71 64 59 56 57 56 54 55 52 44 41 44 46 48 50 50 51 52 53 57 61 63 65 69 71 74 77 73 70 67 62 65 76 80 83 87 87 86 88 87 84 85 86 79 69 65 64 63 64 64 61 62 68 76 87 94 92 91 90 88 92 94 92 93 91 91 92 89 89 90 88 86 83 83 85
28 31 37 42 45 53 59 56 52 56 63 68 73 73 63 57 57 56 55 52 51 47 41 40 45 46 48 49 49 50 54 58 61 64 67 70 72 72 74 76 72 69 67 63 68 79 83 86 90 90 88 89 91 92 91 92 85 73 67 67 67 64 62 62 66 69 73 84 92 91 89 89 89 92 91 88 89 87 86 89 88 86 87 86 84 82 81 79
28 33 40 43 47 54 58 55 53 59 66 68 72 73 63 56 56 56 53 50 48 44 40 42 46 45 47 49 48 51 57 64 67 68 71 75 78 76 75 74 70 67 65 64 70 79 85 89 91 91 90 90 91 91 90 90 84 74 69 69 69 66 62 65 70 71 73 77 82 85 87 88 88 89 88 88 90 87 83 86 87 85 85 84 83 82 79 76
29 35 41 42 47 55 57 56 57 61 67 69 70 70 61 56 56 55 51 49 48 46 42 43 45 46 48 48 48 52 58 63 68 68 69 77 84 81 73 68 67 67 64 63 70 79 85 89 90 90 91 90 90 90 89 89 83 74 70 72 73 68 65 67 69 70 74 78 79 81 86 86 85 86 87 87 88 85 82 82 81 81 82 81 80 77 74 72
28 35 39 40 46 54 57 60 63 65 68 69 70 68 60 56 58 55 52 51 49 45 42 42 44 44 45 45 45 50 55 60 67 69 70 78 84 79 72 68 67 67 65 63 70 79 84 86 88 90 91 89 89 89 86 86 82 74 71 73 73 68 65 68 69 69 74 81 81 80 84 85 82 82 82 81 82 82 81 80 78 78 79 78 77 74 70 68
28 35 41 41 45 53 57 60 63 66 70 71 73 72 62 56 59 57 53 52 48 45 43 44 44 42 42 43 44 48 52 57 65 68 69 76 79 74 71 70 68 67 63 60 68 78 80 83 87 90 92 89 88 87 83 82 81 75 71 71 69 66 65 67 69 68 69 75 77 75 79 83 78 76 77 77 79 79 77 77 76 76 76 75 74 71 68 66
32 37 41 42 46 52 56 58 60 65 70 72 75 75 65 57 57 55 52 50 48 46 44 43 43 42 43 44 46 51 55 56 60 66 68 74 77 73 69 66 64 63 60 59 67 75 78 82 85 88 90 90 89 88 83 80 78 74 71 68 65 64 63 63 65 65 63 69 75 74 77 79 75 72 75 75 76 74 72 73 74 74 73 72 70 67 64 63
39 40 42 44 47 52 56 57 58 61 66 69 73 75 66 57 57 54 49 48 48 46 44 42 43 44 44 44 48 55 59 58 60 66 70 75 78 74 66 61 59 60 60 61 67 74 78 80 80 81 83 85 85 82 80 80 78 73 69 67 65 63 61 59 61 63 64 69 75 76 76 75 73 73 74 74 75 74 73 74 75 73 70 67 63 60 60 61
42 42 43 44 46 52 56 56 56 58 62 67 72 73 65 59 60 56 49 47 47 45 44 44 42 43 43 44 47 53 59 60 61 64 67 72 76 73 64 59 60 60 60 62 67 74 78 77 75 74 75 79 83 81 80 81 79 73 68 66 66 64 61 58 58 61 64 67 71 75 75 73 73 73 73 74 74 74 73 73 72 70 66 61 57 54 55 57
43 44 43 43 46 52 55 55 56 58 61 67 73 73 65 61 63 59 51 47 47 45 43 42 42 42 44 44 46 51 57 60 59 59 62 68 73 70 62 59 60 58 58 63 69 75 79 76 73 73 72 76 83 85 84 82 79 74 70 68 66 64 62 59 59 61 64 64 66 70 71 71 72 73 74 73 71 69 68 67 65 63 61 57 54 52 54 57
44 47 46 45 46 50 52 53 54 55 60 68 75 73 65 63 65 61 53 48 48 46 42 41 43 44 45 46 49 53 58 57 54 55 60 66 68 65 62 62 60 54 56 65 71 74 77 77 77 77 74 75 81 85 85 84 81 75 72 70 68 65 63 61 62 65 66 65 64 65 64 66 69 70 70 67 63 61 61 61 60 58 56 55 53 53 54 58
45 49 49 47 47 47 50 52 51 53 60 69 76 75 66 63 63 60 53 48 47 46 41 40 44 46 45 47 50 52 54 55 52 52 57 62 64 63 64 63 59 55 57 64 69 72 74 75 78 80 78 77 79 82 84 85 82 74 69 68 67 65 62 61 62 65 65 64 63 61 59 61 61 61 61 58 57 59 59 57 55 54 53 52 52 53 55 58
48 50 50 49 48 48 51 52 49 52 61 71 77 75 66 62 61 58 54 49 45 44 41 40 45 46 44 45 47 48 50 52 51 50 54 57 57 59 62 61 57 56 60 63 67 71 74 75 76 78 79 79 78 79 81 81 79 73 65 61 60 59 59 59 59 60 61 63 62 58 58 59 57 54 56 57 57 58 57 55 54 54 53 52 50 52 54 57
51 52 51 50 48 48 51 53 49 52 62 73 79 75 65 61 61 58 56 52 47 44 41 40 43 45 44 44 44 42 43 47 49 49 51 53 52 54 58 58 55 55 59 64 66 69 73 74 73 73 75 76 79 81 80 77 75 72 66 62 61 59 57 58 59 59 61 62 63 63 63 63 61 57 58 60 60 59 58 56 53 52 51 51 52 53 53 53